GW7925 Weather Reports


time (UTC)temp
F
wind
direction
speed
knots
gust
knots
rain 1hr
in
rain 24hr
in
rain mn
in
humidity
%
barometer
mb
20260906233054 64 307 1.7 6.1 0.00 0.07 0.00 72 1014.3
20260906231546 64 288 3.5 8.7 0.00 0.07 0.00 74 1014.4
20260906230051 64 332 1.7 5.2 0.00 0.07 0.00 74 1014.6
20260906224545 64 304 1.7 6.1 0.00 0.07 0.00 73 1014.6
20260906223046 65 283 0.9 6.1 0.00 0.07 0.00 73 1014.9
20260906221543 64 213 0.9 5.2 0.00 0.07 0.00 74 1015.1
20260906220051 65 274 1.7 4.3 0.00 0.07 0.00 73 1015.0
20260906214550 65 297 1.7 4.3 0.00 0.07 0.00 71 1014.9
20260906213043 65 298 0.9 1.7 0.00 0.07 0.00 71 1014.9
20260906211551 65 288 0.9 2.6 0.00 0.07 0.00 68 1015.0
20260906210106 65 336 0.0 1.7 0.00 0.07 0.00 67 1015.0
20260906204547 65 346 0.0 2.6 0.00 0.07 0.00 70 1015.0
20260906203045 65 0 0.0 3.5 0.00 0.07 0.00 68 1015.1
20260906201628 65 0 0.9 4.3 0.00 0.07 0.00 68 1015.1
20260906200047 64 69 0.9 1.7 0.00 0.07 0.00 70 1015.2
20260906194544 63 0 0.0 4.3 0.00 0.07 0.00 72 1015.4
20260906193043 63 76 0.0 3.5 0.00 0.07 0.00 72 1015.7
20260906191607 63 0 0.9 4.3 0.00 0.07 0.00 71 1015.5
20260906190047 63 69 0.9 5.2 0.00 0.07 0.00 71 1015.7
20260906184547 63 64 3.5 7.8 0.00 0.07 0.00 73 1015.7
20260906183048 63 14 2.6 8.7 0.00 0.07 0.00 73 1015.7
20260906181600 62 0 0.0 8.7 0.00 0.07 0.00 77 1015.9
20260906180044 61 56 1.7 5.2 0.00 0.07 0.00 79 1016.2
20260906174555 61 290 0.9 5.2 0.00 0.07 0.00 82 1016.1
20260906173047 60 348 0.9 6.1 0.00 0.07 0.00 83 1015.9
20260906171546 57 15 0.9 6.1 0.00 0.07 0.00 84 1016.3
20260906170044 57 307 2.6 8.7 0.00 0.07 0.00 84 1017.3
20260906164552 57 300 1.7 6.1 0.00 0.07 0.00 83 1017.4
20260906163056 57 311 2.6 6.1 0.00 0.07 0.00 82 1017.5
20260906161544 56 274 2.6 6.1 0.00 0.07 0.00 82 1017.6
20260906160043 56 291 1.7 6.1 0.00 0.07 0.00 81 1017.5
20260906154551 56 306 2.6 7.0 0.00 0.07 0.00 80 1017.6
20260906153046 56 308 1.7 7.0 0.00 0.07 0.00 82 1017.9
20260906151546 56 27 3.5 9.6 0.00 0.07 0.00 80 1017.9
20260906150051 56 320 2.6 9.6 0.00 0.07 0.00 83 1018.0
20260906144547 56 279 3.5 9.6 0.00 0.07 0.00 83 1018.4
20260906143050 57 317 5.2 13.0 0.00 0.07 0.00 82 1018.5
20260906141540 59 282 3.5 6.1 0.00 0.07 0.00 80 1018.2
20260906140059 59 0 0.0 0.0 0.00 0.07 0.00 82 1017.8
20260906134558 59 0 0.0 0.0 0.00 0.12 0.00 81 1017.7
20260906133043 59 0 0.0 1.7 0.00 0.12 0.00 81 1017.7
20260906131551 59 132 0.0 3.5 0.00 0.12 0.00 81 1017.6
20260906130057 59 344 0.0 5.2 0.00 0.12 0.00 80 1017.6
20260906124545 59 316 0.9 4.3 0.00 0.12 0.00 82 1017.7
20260906123043 59 309 1.7 6.1 0.00 0.12 0.00 82 1017.6
20260906121600 59 297 1.7 9.6 0.00 0.12 0.00 81 1017.4
20260906120047 59 314 1.7 5.2 0.00 0.12 0.00 81 1017.2
20260906114600 59 335 1.7 6.1 0.00 0.12 0.00 81 1017.3
20260906113053 59 327 3.5 7.0 0.00 0.12 0.00 80 1017.5
20260906111549 59 331 3.5 7.8 0.00 0.12 0.00 80 1017.5
20260906110043 59 313 3.5 7.0 0.00 0.12 0.00 80 1017.6
20260906104542 59 328 1.7 7.8 0.00 0.12 0.00 80 1017.8
20260906103046 59 344 5.2 9.6 0.00 0.12 0.00 79 1017.7
20260906101543 58 1 2.6 6.1 0.00 0.12 0.00 80 1017.5
20260906100042 58 341 2.6 7.0 0.00 0.12 0.00 80 1017.5
20260906094553 59 311 2.6 10.4 0.00 0.12 0.00 79 1017.6
20260906093046 59 357 2.6 8.7 0.00 0.12 0.00 80 1017.5
20260906091548 59 334 3.5 7.8 0.00 0.12 0.00 80 1017.5
20260906090044 58 14 2.6 7.0 0.00 0.12 0.00 81 1017.8
20260906084550 58 4 1.7 6.1 0.00 0.12 0.00 81 1018.0
20260906083046 58 308 2.6 7.8 0.00 0.12 0.00 83 1018.4
20260906081547 58 290 2.6 6.1 0.00 0.12 0.00 83 1018.8
20260906080046 59 308 0.9 3.5 0.00 0.12 0.00 82 1019.0
20260906074553 58 263 0.0 2.6 0.00 0.12 0.00 81 1019.1
20260906073048 58 303 0.9 1.7 0.00 0.12 0.00 81 1018.8
20260906071547 58 295 0.0 4.3 0.00 0.12 0.00 78 1018.8
20260906070051 58 345 1.7 6.1 0.00 0.12 0.00 78 1019.0
20260906064546 58 338 2.6 8.7 0.00 0.12 0.00 78 1019.0
20260906063047 58 329 1.7 6.1 0.00 0.12 0.00 78 1019.2
20260906061546 58 333 2.6 9.6 0.00 0.12 0.00 80 1019.5
20260906060135 58 281 1.7 4.3 0.00 0.12 0.00 83 1019.6
20260906054548 58 319 0.9 3.5 0.00 0.12 0.12 82 1019.6
20260906053041 58 295 0.0 4.3 0.00 0.12 0.12 80 1019.5
20260906051547 58 307 0.9 4.3 0.00 0.12 0.12 82 1018.9
20260906050100 57 295 0.0 4.3 0.00 0.12 0.12 84 1018.8
20260906044545 57 311 1.7 6.1 0.00 0.12 0.12 82 1018.7
20260906043049 58 323 1.7 4.3 0.00 0.12 0.12 79 1018.7
20260906041545 59 320 2.6 6.1 0.00 0.12 0.12 78 1018.7
20260906040047 59 286 3.5 7.0 0.02 0.12 0.12 76 1017.9
20260906034554 60 326 4.3 8.7 0.07 0.12 0.12 72 1017.5
20260906033048 60 304 4.3 8.7 0.07 0.12 0.12 72 1017.8
20260906031607 59 330 1.7 6.1 0.07 0.12 0.12 74 1018.3
20260906030042 63 316 1.7 7.0 0.04 0.09 0.09 66 1018.2
20260906024556 63 308 4.3 7.8 0.00 0.05 0.05 62 1017.8
20260906023104 63 16 2.6 7.8 0.00 0.05 0.05 61 1016.2
20260906021543 64 282 1.7 9.6 0.00 0.05 0.05 59 1016.3
20260906020056 64 18 0.9 4.3 0.00 0.05 0.05 57 1016.4
20260906014546 65 319 2.6 6.1 0.00 0.05 0.05 56 1016.2
20260906013045 66 340 3.5 7.8 0.00 0.05 0.05 55 1016.4
20260906011547 67 332 0.9 5.2 0.00 0.05 0.05 53 1016.4
20260906010051 68 331 2.6 8.7 0.00 0.05 0.05 51 1016.4
20260906004553 68 331 3.5 7.8 0.00 0.05 0.05 52 1016.2
20260906003051 69 326 2.6 7.0 0.00 0.05 0.05 51 1016.3
20260906001547 70 324 3.5 9.6 0.00 0.05 0.05 50 1016.5
20260906000058 71 295 2.6 7.8 0.00 0.05 0.05 47 1016.4
20260905234547 71 323 2.6 7.8 0.00 0.05 0.05 49 1016.3